SCP
0 0 0 0 0 0 0 0 0 0 0 0 0 0 0 0 0 0 0 0 0 0 0 0 0 0 0 0 0 0 0 0 0 0 0 0 0 0
0 0 0 0 0 0 0 0 0 0 0 0 0 0 0 0 0 0 0 0 0 0 0 0 0 0 0 0 0 0 0 0 0 0 0 0 0 0
0 0 0 0 0 0 0 0 0 0 0 0 0 0 0 0 0 0 0 0 0 0 0 0 0 0 0 0 0 0 0 0 0 0 0 0 0 0
0 0 0 0 0 0 0 0 0 0 0 0 0 0 0 0 0 0 0 0 0 0 0 0 0 0 0 0 0 0 0 0 0 0 0 0 0 0
0 0 0 0 0 0 0 0 0 0 0 0 0 0 0 0 0 0 0 0 0 0 0 0 0 0 0 0 0 0 0 0 0 0 0 0 0 0
0 0 0 0 0 0 0 0 0 0 0 0 0 0 0 0 0 0 0 0 0 0 0 0 0 0 0 0 0 0 0 0 0 0 0 0 0 0
0 0 0 0 0 0 0 0 0 0 0 0 0 0 0 0 0 0 0 0 0 0 0 0 0 0 0 0 0 0 0 0 0 0 0 0 0 0
0 0 0 0 0 0 0 0 0 0 0 0 0 0 0 0 0 0 0 0 0 0 0 0 0 0 0 0 0 0 0 0 0 0 0 0 0 0
0 0 0 0 0 0 0 0 0 0 0 0 0 0 0 0 0 0 0 0 0 0 0 0 0 0 0 0 0 0 0 0 0 0 0 0 0 0
0 0 0 0 0 0 0 0 0 0 0 0 0 0 0 0 0 0 0 0 0 0 0 0 0 0 0 0 0 0 0 0 0 0 0 0 0 0
0 0 0 0 0 0 0 0 0 0 0 0 0 0 0 0 0 0 0 0 0 0 0 0 0 0 0 0 0 0 0 0 0 0 0 0 0 0
0 0 0 0 0 0 0 0 0 0 0 0 0 0 0 0 0 0 0 0 0 0 0 0 0 0 0 0 0 0 0 0 0 0 0 0 0 0
0 0 0 0 0 0 0 0 0 0 0 0 0 0 0 0 0 0 0 0 0 0 0 0 0 0 0 0 0 0 0 0 0 0 0 0 0 0
0 0 0 0 0 0 0 0 0 0 0 0 0 0 0 0 0 0 0 0 0 0 0 0 0 0 0 0 0 0 0 0 0 0 0 0 0 0
0 0 0 0 0 0 0 0 0 0 0 0 0 0 0 0 0 0 0 0 0 0 0 0 0 0 0 0 0 0 0 0 0 0 0 0 0 0
0 0 0 0 0 0 0 0 0 0 0 0 0 0 0 0 0 0 0 0 0 0 0 0 0 0 0 0 0 0 0 0 0 0 0 0 0 0
0 0 0 0 0 0 0 0 0 0 0 0 0 0 0 0 0 0 0 0 0 0 0 0 0 0 0 0 0 0 0 0 0 0 0 0 0 0
0 0 0 0 0 0 0 0 0 0 0 0 0 0 0 0 0 0 0 0 0 0 0 0 0 0 0 0 0 0 0 0 0 0 0 0 0 0
0 0 0 0 0 0 0 0 0 0 0 0 0 0 0 0 -0 -0 0 0 0 0 0 0 0 0 0 0 0 0 0 0 0 0 0 0 0 0
0 0 0 0 0 0 0 0 0 0 0 0 0 -0 -0 -0 0 0 0 0 0 0 0 0 0 0 0 0 0 0 0 0 0 0 0 0 0 0
0 0 0 0 0 0 0 0 0 0 0 -0 0 0 0 0 0 0 0 0 0 0 0 0 0 0 0 0 0 0 0 0 0 0 0 0 0 0
0 0 0 0 0 0 0 0 0 0 0 0 0 0 0 0 0 0 0 0 0 0 0 0 0 0 0 0 0 0 0 0 0 0 0 0 0 0
0 0 0 0 0 0 0 0 0 0 0 0 0 0 0 0 0 0 0 0 0 0 0 0 0 0 0 0 0 0 0 0 0 0 0 0 0 0
Wind_Speed
7 8 6 5 5 5 4 4 5 4 2 1 2 4 4 5 6 6 6 9 9 7 7 7 8 8 8 8 9 8 8 7 7 6 4 4 5 6
4 6 6 4 5 4 4 3 3 4 4 2 2 2 3 6 8 7 7 10 11 9 9 9 10 10 10 10 10 10 9 8 7 6 5 5 5 6
2 4 5 5 4 4 3 3 2 4 6 3 2 2 4 6 6 6 7 7 8 13 12 12 12 11 11 11 12 12 12 11 10 9 8 7 7 8
1 2 4 5 6 4 4 4 4 4 7 6 3 3 5 5 5 6 6 7 7 12 12 12 12 12 11 11 11 11 11 11 11 10 10 9 10 10
5 5 5 6 6 5 5 6 6 6 5 7 4 3 5 4 5 5 6 5 5 7 8 9 10 10 10 10 10 11 10 10 9 9 8 8 9 10
7 6 6 5 6 6 6 7 8 8 7 8 6 4 4 4 4 4 4 4 5 5 6 6 7 8 9 10 11 11 11 11 10 10 10 9 9 10
8 7 5 7 7 6 7 7 9 8 8 8 6 5 4 4 3 2 3 2 4 4 3 4 4 5 6 8 10 11 10 10 11 11 11 12 12 12
6 6 7 9 13 13 12 10 9 9 8 6 6 6 4 3 2 2 3 3 3 4 3 4 4 5 5 6 9 11 11 11 11 11 12 12 13 13
4 5 6 7 9 10 12 13 11 9 8 7 8 5 4 2 3 3 3 3 2 4 3 3 4 4 4 5 10 11 12 13 13 13 13 14 14 14
4 5 6 5 5 8 9 9 8 7 5 5 6 4 3 2 2 2 3 3 2 3 4 3 3 2 2 3 8 11 12 13 13 14 15 16 16 15
5 4 5 5 7 11 11 10 10 8 10 12 11 9 8 6 3 3 3 3 3 3 4 3 3 2 2 2 5 10 11 12 13 14 15 17 18 15
4 4 5 6 7 9 10 11 11 7 7 8 9 9 8 10 9 5 3 3 2 2 4 3 3 2 2 2 3 5 7 9 12 13 15 16 18 13
5 4 4 9 10 10 9 8 10 8 8 9 7 7 6 6 7 6 5 4 4 2 3 2 2 2 2 3 3 4 6 7 8 9 11 15 16 14
6 5 5 10 12 12 9 11 12 9 7 7 6 5 5 5 5 6 7 7 6 4 4 3 2 3 2 3 3 5 5 6 8 8 9 11 12 13
6 9 10 12 12 9 10 11 8 6 6 6 6 4 3 2 3 4 5 5 6 6 6 5 3 2 3 3 3 4 5 5 8 7 8 9 10 10
8 10 11 11 9 9 7 6 5 5 5 5 4 3 2 3 4 3 3 3 5 5 6 7 6 4 3 3 3 4 4 5 6 6 6 8 9 9
10 6 5 4 5 4 4 4 4 4 4 3 4 5 4 4 3 3 3 3 4 3 5 5 4 3 5 4 4 4 4 4 5 5 5 7 8 9
11 8 6 6 6 6 6 4 3 4 4 4 5 4 4 4 4 3 3 3 3 3 3 4 4 2 2 3 4 5 4 4 4 5 5 6 9 9
9 8 7 7 6 6 6 5 4 4 3 4 5 4 4 4 3 3 3 2 2 2 3 3 3 3 3 3 3 4 5 4 5 6 6 6 7 8
7 10 8 8 7 7 7 5 5 5 4 4 4 4 4 3 3 3 2 2 2 1 2 2 3 3 2 3 3 3 4 4 5 6 7 6 6 6
8 9 8 8 8 8 7 7 7 6 6 5 5 5 4 3 3 2 2 3 2 1 2 3 3 4 2 2 2 2 3 3 3 4 6 7 9 9
9 9 8 8 8 8 8 8 7 6 7 5 5 5 4 3 3 4 4 4 3 2 1 1 3 2 1 1 2 3 4 4 4 3 3 4 7 9
10 9 8 9 8 7 8 9 10 8 7 7 6 5 5 4 3 3 4 4 3 3 2 0 1 1 2 2 2 3 4 4 4 5 4 5 7 7
Wind_Direction
235 224 216 209 200 197 191 181 171 159 144 109 63 30 55 68 62 65 60 56 56 64 80 82 79 70 60 53 47 43 40 39 39 34 20 359 331 308
226 212 206 194 186 183 180 172 164 143 130 103 79 51 68 82 71 70 64 56 53 68 82 83 80 70 58 50 44 37 31 27 22 14 3 350 333 316
233 206 194 171 158 145 127 118 121 124 119 103 70 63 80 83 72 67 62 60 60 65 77 82 79 72 63 57 51 44 37 30 22 11 356 340 325 312
61 126 134 129 118 110 106 104 101 107 124 121 82 66 71 75 76 65 55 56 58 63 71 76 78 76 70 64 58 50 43 35 27 17 4 349 333 318
56 72 85 99 95 94 105 110 108 101 101 111 98 71 72 57 68 60 52 43 46 52 61 65 69 73 69 60 52 46 40 33 25 16 5 352 337 323
50 53 62 83 100 108 113 118 115 108 105 105 99 83 72 54 66 64 62 42 39 30 38 44 53 65 61 52 42 35 27 19 12 4 357 346 333 319
56 53 65 96 110 117 125 123 120 115 110 107 101 91 75 67 67 60 74 57 54 30 26 39 42 52 48 40 33 25 17 9 2 355 349 342 332 321
78 67 76 88 95 93 96 100 114 123 121 113 108 104 96 85 81 76 78 62 40 10 14 32 36 49 42 40 29 28 21 12 3 354 346 337 329 320
102 95 89 84 90 93 82 76 74 91 115 124 120 122 124 137 126 109 98 86 64 353 354 28 24 41 33 36 32 32 26 19 11 4 355 344 332 322
86 104 110 100 102 108 97 83 72 65 85 97 112 115 118 144 151 129 127 105 73 37 13 28 7 9 358 22 24 26 22 15 9 6 3 356 345 330
69 80 112 111 123 120 110 103 92 81 78 84 87 85 79 75 111 115 105 99 65 22 16 15 357 335 324 354 7 12 12 9 5 2 1 360 352 347
82 69 85 111 123 125 121 119 113 111 108 91 73 60 62 58 57 69 105 108 96 45 13 358 360 351 355 346 346 4 7 1 358 359 0 1 359 6
121 102 86 103 104 103 107 115 128 125 108 100 91 79 68 62 58 59 61 85 92 62 354 338 7 17 13 342 339 349 1 1 359 3 5 3 3 11
138 128 112 107 103 101 100 112 114 108 104 100 95 86 79 72 66 67 70 71 72 67 12 15 44 24 23 21 353 336 344 4 5 5 9 9 12 10
139 137 125 112 102 97 105 112 109 106 108 108 106 95 80 67 79 78 63 66 67 54 40 31 49 60 56 38 2 346 340 351 3 9 15 19 18 13
128 124 113 103 100 101 95 88 90 104 116 116 110 101 92 83 70 71 68 55 55 34 32 37 35 51 61 44 34 21 4 355 355 3 16 25 24 20
138 124 121 123 119 116 107 102 103 111 107 113 118 113 100 87 76 74 82 78 68 33 9 9 22 55 59 40 34 24 12 12 4 357 8 21 22 15
141 146 151 155 156 156 150 138 131 126 123 128 127 121 113 105 97 90 92 94 84 51 21 2 355 28 70 81 45 10 9 1 350 354 1 6 11 9
148 161 165 170 171 170 168 162 156 147 141 140 138 136 130 123 121 122 122 114 98 60 27 12 12 16 13 11 36 42 2 345 345 355 358 355 357 357
168 172 175 177 178 179 180 173 159 152 153 153 149 151 150 143 142 146 152 146 122 68 33 25 20 3 337 335 331 345 9 353 345 347 349 343 345 337
179 178 179 180 185 187 186 181 173 171 170 167 166 166 164 160 159 162 160 149 141 110 41 16 348 324 269 264 273 327 359 8 355 339 340 346 349 353
182 181 182 184 185 185 183 181 179 178 179 183 181 177 174 178 181 178 178 174 176 167 119 4 352 11 53 3 345 335 334 342 343 334 357 11 353 352
183 183 183 184 184 181 180 183 185 187 189 193 193 189 183 184 188 186 185 187 181 181 190 228 13 34 36 1 331 326 332 338 337 333 336 344 340 330